SB KEPS @ AMSAT $ORB09309.N 2Line Orbital Elements 09309.AMSAT
HR AMSAT ORBITAL ELEMENTS FOR AMATEUR SATELLITES IN NASA FORMAT FROM WA5QGD FORT WORTH,TX November 5, 2009 Send Subscribe/unsubscribe to KEPS at http://www.amsat.org/mailman/listinfo/keps BID: ORB09309.N
DECODE 2-LINE ELSETS WITH THE FOLLOWING KEY: 1 AAAAAU 00 0 0 BBBBB.BBBBBBBB .CCCCCCCC 00000-0 00000-0 0 DDDZ 2 AAAAA EEE.EEEE FFF.FFFF GGGGGGG HHH.HHHH III.IIII JJ.JJJJJJJJKKKKKZ KEY: A-CATALOGNUM B-EPOCHTIME C-DECAY D-ELSETNUM E-INCLINATION F-RAAN G-ECCENTRICITY H-ARGPERIGEE I-MNANOM J-MNMOTION K-ORBITNUM Z-CHECKSUM
TO ALL RADIO AMATEURS BT
AO-07 1 07530U 74089B 09308.94699184 -.00000027 00000-0 10000-3 0 06220 2 07530 101.4185 328.4117 0011920 354.0278 006.0653 12.53576873600356 FO-29 1 24278U 96046B 09308.65977209 .00000002 00000-0 39396-4 0 01856 2 24278 098.5294 163.6609 0350900 346.3963 012.7902 13.52946294652744 SO-33 1 25509U 98061B 09307.49941818 .00000018 00000-0 -78803-5 0 05793 2 25509 031.4311 344.7343 0354167 116.5707 247.1614 14.28269080575762 RS-22 1 27939U 03042A 09308.64684822 .00000149 00000-0 37613-4 0 09313 2 27939 097.9197 178.2283 0014582 051.2275 309.0230 14.63353659326112 VO-52 1 28650U 05017B 09308.59039410 .00000283 00000-0 42422-4 0 03574 2 28650 097.7268 005.4004 0025867 291.5318 068.3253 14.81637878243438 SO-67 1 35870U 09049F 09309.76818853 .00000522 00000-0 25219-4 0 1468 2 35870 097.3658 358.9063 0013041 118.2637 352.2684 15.22839919 7460 AO-16 1 20439U 90005D 09308.59478811 .00000027 00000-0 25670-4 0 7424 2 20439 098.3000 270.7492 0011786 111.3741 248.8680 14.31838166 33241 LO-19 1 20442U 90005G 09308.69871232 .00000032 00000-0 27195-4 0 6545 2 20442 098.2622 277.5629 0012919 108.1765 252.0810 14.32072164 33421 AO-27 1 22825U 93061C 09308.85724913 -.00000020 00000-0 87880-5 0 3787 2 22825 098.4555 257.9708 0007934 204.8127 155.2705 14.29277331840008 IO-26 1 22826U 93061D 09309.87252772 -.00000004 00000-0 15211-4 0 1126 2 22826 098.4484 259.6457 0008547 197.4424 162.6465 14.29530654840250 GO-32 1 25397U 98043D 09309.80991511 -.00000070 00000-0 -12881-4 0 326 2 25397 098.3187 324.5232 0001084 150.4576 209.6669 14.23165556588272 NO-44 1 26931U 01043C 09308.83846795 .00000019 00000-0 39874-4 0 03077 2 26931 067.0521 061.9810 0006948 270.1274 089.9050 14.29571728422688 SO-50 1 27607U 02058C 09308.53273700 .00000051 00000-0 29846-4 0 00264 2 27607 064.5589 318.8429 0050316 169.1087 191.1126 14.71471846369320 CO-55 1 27844U 03031E 09308.57021750 .00000074 00000-0 54618-4 0 07053 2 27844 098.7133 315.7638 0010538 096.6297 263.6083 14.20664775329191 CO-57 1 27848U 03031J 09308.70834822 .00000041 00000-0 39567-4 0 06570 2 27848 098.7169 314.9666 0010799 102.2363 258.0021 14.20463183329171 AO-51 1 28375U 04025K 09308.60837998 .00000020 00000-0 18361-4 0 5256 2 28375 098.0539 310.0490 0085105 058.8147 302.1355 14.40657430281172 CO-56 1 28941U 06005C 09297.68475575 .14491492 29743-5 25760-3 0 5565 2 28941 098.0955 138.9518 0011688 319.8691 040.7485 16.46998778207909 GENESAT1 1 29655U 06058C 09308.56491210 .00018746 00000-0 15826-3 0 08523 2 29655 040.0238 021.7595 0002915 132.4497 227.6571 15.69211764164500 CP3 1 31129U 07012N 09309.56295760 .00000163 00000-0 48319-4 0 3079 2 31129 097.9707 355.7426 0101878 206.8622 152.7284 14.52176849135409 CO-65 1 32785U 08021C 09308.33753546 .00000194 00000-0 31515-4 0 05160 2 32785 097.9300 011.0234 0014179 298.6224 061.3565 14.81536441082194 KKS-1 1 33493U 09002B 09309.73787296 .00000390 00000-0 57523-4 0 9137 2 33493 098.0685 062.6647 0020815 141.4039 218.8670 14.80766055 42414 SOHLA-1 1 33496U 09002E 09309.74950443 .00000038 00000-0 14625-4 0 8782 2 33496 098.0480 056.9268 0006315 182.9282 177.1896 14.69453176 42066 NOAA-10 1 16969U 86073A 09308.70283720 -.00000107 00000-0 -25817-4 0 08215 2 16969 098.6806 334.5164 0012634 143.9521 216.2515 14.27397523203557 NOAA-11 1 19531U 88089A 09308.79053020 .00000158 00000-0 10416-3 0 08390 2 19531 098.7816 036.5462 0012292 068.9831 291.2641 14.14907024089405 NOAA-12 1 21263U 91032A 09308.90056491 .00000055 00000-0 42137-4 0 03314 2 21263 098.7717 317.0397 0013398 097.8813 262.3912 14.25599998960444 MET-3/5 1 21655U 91056A 09308.91988928 .00000051 00000-0 10000-3 0 07510 2 21655 082.5521 107.0901 0013451 184.8189 175.2807 13.17021963876155 MET-2/21 1 22782U 93055A 09308.75745443 .00000058 00000-0 39146-4 0 06102 2 22782 082.5471 070.4964 0021309 315.3435 044.6023 13.83640291817045 OKEAN-4 1 23317U 94066A 09309.75149247 .00000227 00000-0 25078-4 0 641 2 23317 082.5421 202.3755 0020442 258.6921 101.2003 14.82735076813348 NOAA-14 1 23455U 94089A 09308.93695085 -.00000183 00000-0 -73352-4 0 08171 2 23455 098.8997 026.0446 0010030 147.8358 212.3425 14.13770547765818 NOAA-15 1 25338U 98030A 09308.78615824 .00000131 00000-0 74645-4 0 01438 2 25338 098.5979 295.0109 0010914 013.8537 346.2930 14.24791366596794 RESURS 1 25394U 98043A 09308.67144479 -.00000006 00000-0 15118-4 0 3495 2 25394 098.3291 333.7880 0001668 126.8068 233.3265 14.24189472588390 FENGYUN1 1 25730U 99025A 09309.77091059 .00000696 00000-0 43320-3 0 8929 2 25730 098.7682 275.7768 0021224 171.5770 188.5765 14.08045878540240 OKEAN-0 1 25860U 99039A 09308.86636712 .00000055 00000-0 15785-4 0 08292 2 25860 097.8039 284.5911 0001834 075.7919 284.3491 14.73595661553868 NOAA-16 1 26536U 00055A 09308.82705919 -.00000251 00000-0 -11045-3 0 06231 2 26536 099.1784 315.9231 0009834 244.4102 115.6037 14.12535862470154 NOAA-17 1 27453U 02032A 09308.94305419 -.00000026 00000-0 67706-5 0 06158 2 27453 098.4666 003.0377 0012661 075.3195 284.9354 14.24103461382787 NOAA-18 1 28654U 05018A 09308.91941522 -.00000007 00000-0 20784-4 0 01032 2 28654 098.9218 251.1536 0014022 329.5415 030.4977 14.11298243229801 NOAA-19 1 33591U 09005A 09308.92971082 -.00000167 00000-0 -68726-4 0 03086 2 33591 098.7618 251.1201 0013621 201.3745 158.6876 14.10996777038282 HUBBLE 1 20580U 90037B 09308.22684229 .00000445 00000-0 21313-4 0 4711 2 20580 028.4701 268.3012 0003343 334.3060 025.7370 15.00849904870912 ISS 1 25544U 98067A 09309.86935794 .00018392 00000-0 12008-3 0 9292 2 25544 051.6431 299.0934 0006202 298.6359 148.5370 15.75906518628270 CO-58 1 28895U 05043F 09308.71575238 .00000179 00000-0 46923-4 0 4341 2 28895 098.0391 195.2387 0016939 268.6380 091.2903 14.59810807214239 FALCON 1 30776U 07006E 09308.43292723 .00000630 00000-0 48534-4 0 07050 2 30776 035.4346 328.4563 0001346 021.9220 338.1554 15.03356710146215 MAST 1 31126U 07012K 09308.60508827 .00000063 00000-0 24781-4 0 7239 2 31126 097.9709 356.8499 0094242 203.4724 156.2146 14.53527321135437 CAPE1 1 31130U 07012P 09308.64439262 .00000136 00000-0 42116-4 0 7349 2 31130 097.9731 354.7623 0101976 209.9122 149.6221 14.52100354135071 COMPASS 1 32787U 08021E 09308.23415640 .00000293 00000-0 43929-4 0 05107 2 32787 097.9272 010.7559 0014947 299.9351 060.0376 14.81685112082183 AAUSAT2 1 32788U 08021F 09308.86551939 .00000056 00000-0 13820-4 0 5035 2 32788 097.9282 011.4655 0014452 300.6704 059.3068 14.81811375 82285 DO-64 1 32789U 08021G 09308.75159620 .00000715 00000-0 97090-4 0 5184 2 32789 097.9322 011.6099 0014747 297.0540 062.9167 14.81841415 82265 CO-66 1 32791U 08021J 09309.71194278 .00000103 00000-0 19951-4 0 4991 2 32791 097.9287 012.2488 0015308 292.8585 067.0998 14.81503026 82365 RS-30 1 32953U 08025A 09308.72454195 .00000010 00000-0 00000 0 0 4450 2 32953 082.5034 169.2441 0018104 232.2596 127.6842 12.43003129 65855 TACSAT-3 1 35001U 09028A 09308.88379814 .00002928 00000-0 78223-4 0 01456 2 35001 040.4553 118.9512 0022195 128.8611 231.4188 15.39478096026035 PHARMSAT 1 35002U 09028B 09308.86539278 .00003012 00000-0 78279-4 0 1318 2 35002 040.4681 118.0871 0025130 133.5161 226.7750 15.40210181 26035 HAWKSAT1 1 35003U 09028C 09309.83370206 .00005719 00000-0 13859-3 0 1397 2 35003 040.4609 111.2049 0024936 146.5926 213.6468 15.41205902 26200 CP6 1 35004U 09028D 09308.85769066 .00006779 00000-0 16257-3 0 01342 2 35004 040.4619 117.0158 0024436 138.5077 221.7592 15.41332583026046 AEROCUB3 1 35005U 09028E 09308.87925500 .00006197 00000-0 15038-3 0 01421 2 35005 040.4744 117.3734 0024090 135.0336 225.2440 15.41090888026045 DRAGNSAT 1 35690U 09038B 09308.88970455 .00040381 00000-0 16236-3 0 00975 2 35690 051.6439 297.8566 0006381 083.7478 276.4253 15.85988572015420 POLLUX 1 35693U 09038E 09309.62437395 .00036216 00000-0 15284-3 0 998 2 35693 051.6405 294.5252 0005549 051.4676 308.6778 15.85042312 15501 CASTOR 1 35694U 09038F 09309.62722070 .00017207 00000-0 83686-4 0 919 2 35694 051.6417 295.3215 0005456 049.3497 310.7957 15.82542855 15492 METEOR-M 1 35865U 09049A 09308.85962865 .00000176 00000-0 10000-3 0 00470 2 35865 098.7934 358.8882 0001534 302.5945 057.5064 14.21827075006844 STERKH-2 1 35866U 09049B 09308.84372761 .00000178 00000-0 10000-3 0 517 2 35866 098.7943 358.9163 0002365 300.5261 059.5647 14.22298883 6849 FREGAT-I 1 35867U 09049C 09309.81668871 .00002268 00000-0 10000-3 0 585 2 35867 097.3672 358.9647 0011690 111.9106 248.3173 15.22753937 7473 /EX